GFSMA_700_temp_093.txt.gz
Temp
3 3 3 2 2 2 2 2 2 2 3 3 2 2 2 2 2 2 2 2 2 2 2 2 2 2 2 3 3 3 3 2 2 2 2 2 2 2 2 1 1 1 1
2 2 3 2 2 2 2 2 2 2 2 2 2 2 2 2 2 2 2 2 2 2 2 1 1 2 2 2 2 3 2 3 2 2 2 2 1 1 1 1 1 1 1
2 2 2 2 2 2 1 1 1 2 2 2 1 1 1 1 1 1 1 2 2 2 2 2 2 1 2 1 1 2 2 2 2 2 1 1 1 1 1 1 1 1 0
1 2 2 2 1 1 1 1 1 1 1 1 1 1 1 1 1 1 1 1 1 1 1 1 1 2 1 1 1 1 1 1 1 1 1 1 1 1 1 1 1 1 0
1 1 1 1 1 1 1 -0 1 1 1 0 1 1 1 1 1 1 1 1 1 1 1 1 1 1 1 0 0 0 0 0 0 0 0 0 0 0 0 -0 -0 -0 -0
-0 0 0 0 -0 0 -0 -0 1 0 0 0 1 1 1 1 1 1 1 1 0 0 0 0 0 1 0 -0 -0 -0 -0 -0 -0 -0 -0 -1 -1 -1 -1 -1 -1 -2 -1
-1 -1 -0 -0 -0 -1 -1 -1 0 -0 1 1 1 1 1 1 1 0 0 0 -0 -0 -0 -0 -0 -0 -0 -0 -1 -1 -2 -2 -2 -2 -2 -2 -2 -2 -2 -2 -2 -2 -2
-1 -1 -1 -2 -2 -2 -2 -1 -0 0 0 0 0 0 1 1 1 0 -0 -0 -1 -1 -1 -1 -1 -1 -1 -1 -1 -1 -2 -2 -2 -2 -2 -1 -1 -2 -2 -3 -3 -3 -3
-0 -1 -1 -2 -2 -2 -2 -1 -0 0 0 0 -0 -0 1 1 0 -0 -0 -1 -1 -1 -1 -1 -1 -1 -2 -2 -2 -2 -2 -2 -3 -2 -2 -3 -2 -3 -3 -3 -3 -3 -3
-1 -1 -2 -2 -2 -2 -2 -1 -0 0 0 0 0 -0 0 -0 -0 -0 -1 -1 -1 -1 -2 -2 -2 -2 -2 -2 -2 -3 -3 -3 -3 -3 -3 -4 -4 -3 -3 -3 -3 -3 -3
-2 -1 -1 -2 -2 -2 -1 -1 -0 0 0 0 0 -0 0 -0 -0 -0 -1 0 -1 -2 -1 -2 -2 -2 -2 -3 -3 -3 -3 -3 -3 -3 -4 -4 -4 -4 -4 -4 -5 -4 -4
-0 -1 -1 -1 -1 -2 -1 -1 -1 -0 -0 -0 -0 -0 -0 -0 -1 -0 -1 -1 -1 -1 -2 -1 -2 -2 -3 -3 -3 -3 -3 -3 -4 -4 -4 -5 -5 -5 -5 -5 -6 -6 -6
-0 -0 -0 -1 -1 -1 -0 -0 -0 -0 -0 -0 -1 -0 -1 -0 -1 -0 -1 -1 -1 -1 -1 -2 -2 -3 -3 -3 -3 -3 -4 -5 -5 -4 -5 -5 -5 -6 -6 -6 -6 -7 -7
2 2 1 1 1 0 0 0 0 0 -1 -1 -0 0 -0 -0 -0 -1 -1 -1 -2 -1 -1 -2 -3 -3 -3 -3 -3 -4 -4 -4 -5 -5 -5 -5 -6 -6 -6 -7 -7 -7 -8
2 2 2 2 1 1 0 0 0 -0 -1 0 1 0 0 -0 -0 -0 -1 -1 -1 -2 -2 -2 -3 -3 -3 -3 -3 -3 -4 -5 -5 -5 -5 -6 -6 -6 -7 -7 -7 -8 -8
3 2 2 2 1 1 1 0 0 0 0 0 1 1 0 0 -0 -0 -1 -1 -2 -2 -2 -2 -3 -4 -3 -3 -3 -4 -4 -5 -5 -5 -6 -6 -7 -7 -7 -8 -8 -8 -8
3 2 2 2 1 1 1 0 0 0 -0 -0 -0 -0 -0 0 -0 -1 -1 -1 -1 -2 -2 -3 -3 -4 -3 -4 -5 -5 -4 -5 -5 -6 -7 -7 -7 -8 -8 -8 -8 -9 -9
2 2 2 2 2 1 1 -0 -0 -0 -0 -0 -0 -0 -0 -0 -1 -1 -1 -1 -1 -2 -2 -3 -4 -4 -4 -4 -4 -5 -5 -6 -6 -6 -7 -7 -8 -8 -9 -9 -9 -9 -10
2 2 1 1 1 0 0 -0 -0 0 -0 -0 -0 -1 -0 -1 -1 -1 -0 -1 -1 -2 -2 -3 -3 -4 -4 -4 -5 -5 -6 -7 -7 -7 -8 -9 -9 -9 -9 -9 -10 -10 -11
2 2 2 1 1 1 0 0 0 0 0 0 -0 -0 0 -0 -0 -0 -1 -1 -2 -2 -2 -3 -3 -3 -4 -5 -5 -6 -6 -7 -8 -9 -9 -9 -10 -10 -10 -12 -12 -12 -12
3 3 2 2 2 2 1 1 0 0 0 0 -0 -1 -1 -1 0 -1 -1 -1 -1 -2 -3 -3 -4 -4 -5 -5 -6 -6 -6 -7 -9 -10 -11 -11 -11 -11 -12 -13 -12 -12 -12
3 2 2 2 2 2 1 1 1 1 1 0 0 0 -1 -1 -1 -1 -1 -1 -2 -2 -3 -3 -4 -5 -5 -5 -7 -7 -7 -8 -9 -9 -11 -11 -11 -12 -12 -13 -13 -12 -12
2 2 2 2 2 1 1 1 1 1 0 0 -0 -1 -0 -1 -1 -2 -2 -2 -2 -3 -4 -4 -5 -5 -6 -7 -8 -8 -8 -10 -11 -12 -12 -11 -12 -12 -12 -12 -12 -12 -12
2 2 2 1 2 1 1 0 -0 -1 -1 -1 -0 -0 -1 -1 -2 -2 -3 -3 -3 -4 -5 -5 -6 -7 -8 -8 -8 -9 -10 -12 -11 -12 -12 -12 -13 -12 -12 -12 -12 -13 -13
2 1 2 1 1 1 1 1 1 -0 -1 -2 -2 -2 -2 -2 -3 -3 -4 -4 -4 -4 -5 -6 -7 -8 -8 -8 -9 -9 -11 -12 -12 -13 -14 -13 -13 -13 -13 -12 -13 -14 -14
1 1 1 1 1 1 0 0 0 -1 -1 -2 -2 -2 -3 -3 -4 -4 -5 -5 -5 -6 -7 -8 -8 -8 -9 -10 -11 -13 -13 -13 -13 -13 -14 -14 -14 -14 -13 -13 -14 -14 -15

GFSMA_700_temp_096.txt.gz
Temp
4 4 3 3 3 3 2 2 2 2 2 2 2 2 2 2 2 2 2 2 2 2 2 2 2 2 2 3 3 3 3 3 3 3 3 3 3 2 2 2 2 2 2
3 2 2 3 3 2 2 2 2 2 2 2 2 2 2 2 2 2 2 1 1 2 1 2 2 2 2 2 2 2 2 2 2 2 2 2 2 2 2 1 1 1 1
3 2 1 2 3 2 2 2 2 3 2 2 2 2 1 1 1 1 1 1 2 2 1 1 1 2 2 2 2 2 2 2 2 2 1 1 1 1 1 1 1 1 1
2 2 2 2 2 2 2 2 2 2 1 1 1 1 1 1 1 1 1 1 1 1 1 1 1 1 1 1 1 1 1 1 1 1 1 1 1 1 1 1 1 1 1
1 -1 1 1 2 2 2 2 1 1 1 1 1 1 1 1 1 1 1 1 1 1 1 1 1 1 1 1 1 1 1 1 0 0 0 0 -0 -0 -0 -0 -0 0 0
2 1 1 2 1 2 1 1 1 0 0 1 1 1 1 1 1 1 1 1 0 0 0 0 0 1 1 1 0 0 0 0 -0 -0 -1 -1 -1 -1 -1 -1 -1 -1 -1
-1 1 1 1 1 1 1 1 -0 -0 -0 0 0 1 0 0 1 0 0 0 0 0 -0 -0 -0 0 0 0 0 -0 -0 -0 -0 -1 -1 -1 -1 -2 -2 -1 -1 -1 -2
-0 1 1 1 0 0 0 -0 -0 -0 -0 0 -1 0 -0 0 1 1 0 0 0 -0 -0 -0 -0 0 0 1 0 -0 -1 -1 -1 -1 -2 -2 -2 -2 -1 -1 -2 -2 -2
-1 -0 -1 -1 -1 -1 -1 -1 -1 -1 -1 -0 -0 -0 -0 0 0 0 0 -0 -0 0 0 -0 -0 -1 -1 -1 -1 -1 -1 -2 -2 -2 -2 -2 -1 -1 -1 -2 -2 -2 -2
-0 -2 -2 -1 -1 -1 -2 -1 -1 -1 -1 -1 -0 -0 -0 -0 0 0 -0 -0 -0 -0 -0 -1 -1 -1 -1 -1 -2 -2 -1 -2 -2 -2 -3 -2 -2 -2 -2 -2 -2 -2 -2
0 -0 -1 -2 -2 -2 -2 -2 -1 -1 -1 -1 -0 -0 -0 -0 -0 -0 -0 -0 -0 -0 -1 -1 -1 -2 -1 -1 -1 -2 -2 -2 -2 -2 -2 -2 -2 -3 -3 -3 -3 -3 -3
0 -0 -1 -1 -1 -1 -1 -2 -1 -1 -1 -1 -1 -0 -0 -1 -0 -1 -1 -0 -1 -1 -1 -1 -1 -1 -1 -1 -2 -2 -2 -3 -3 -3 -3 -3 -3 -3 -4 -4 -4 -4 -4
0 -0 -0 0 -1 -1 -1 -1 -1 -1 -1 -1 -1 -1 -0 -1 -1 -1 -1 -1 -0 -1 -1 -1 -1 -1 -1 -1 -2 -3 -3 -3 -3 -3 -3 -3 -4 -4 -4 -4 -4 -5 -5
-0 -0 -1 -1 -1 -1 -1 0 -1 -1 -1 -1 -1 -1 -1 -1 -1 -1 -1 -1 -0 0 -1 0 -1 -1 -1 -0 -1 -2 -2 -2 -2 -2 -2 -3 -3 -4 -4 -4 -5 -5 -6
-1 -1 -1 -0 0 0 0 0 0 0 -0 -0 -0 -0 -0 -0 -1 -1 -1 -1 -0 -1 0 -0 -1 -1 -1 -1 -1 -2 -2 -2 -2 -3 -3 -3 -3 -4 -4 -4 -5 -5 -6
2 2 2 2 1 1 1 1 1 1 0 0 -0 -0 -0 -1 -1 -1 -1 -1 -1 0 -0 -1 -1 -1 -1 -1 -1 -2 -2 -2 -3 -3 -3 -4 -4 -4 -5 -5 -6 -6 -7
3 3 2 2 2 2 2 1 1 1 0 0 0 -0 -0 -1 -1 -1 -1 -1 -1 -1 -1 -1 -1 -1 -2 -2 -2 -2 -3 -3 -3 -3 -4 -4 -4 -5 -5 -6 -7 -7 -8
3 2 2 2 2 2 1 1 1 0 -0 -0 -0 -1 -1 -1 -0 -0 -1 -1 -1 -1 -1 -1 -1 -2 -1 -2 -2 -3 -4 -3 -4 -4 -4 -4 -5 -5 -6 -7 -8 -8 -8
3 2 2 2 2 1 1 1 1 -0 -0 -0 -0 -0 -0 -0 0 0 -0 -1 -1 -1 -1 -1 -2 -2 -1 -2 -2 -3 -3 -4 -4 -5 -5 -5 -5 -5 -6 -8 -9 -9 -9
2 2 2 1 1 1 1 1 1 1 0 0 0 0 0 0 -0 0 -0 -0 -1 -0 -1 -1 -1 -1 -2 -2 -3 -3 -3 -4 -5 -6 -5 -6 -6 -7 -8 -10 -11 -10 -11
2 2 1 2 2 2 1 1 1 1 1 1 0 1 0 -0 -1 -0 -0 -0 -1 -1 -1 -1 -2 -2 -2 -2 -3 -3 -5 -5 -6 -6 -7 -8 -8 -8 -10 -10 -10 -10 -12
3 2 2 2 2 2 2 2 1 1 1 1 1 1 1 -0 -0 -0 -1 -1 -1 -1 -1 -1 -2 -2 -2 -3 -4 -5 -6 -6 -7 -8 -8 -7 -9 -9 -11 -11 -11 -12 -13
3 3 3 3 3 2 2 2 1 1 1 1 0 -0 -1 -0 -1 -1 -1 -1 -1 -1 -2 -2 -3 -3 -3 -4 -5 -6 -6 -7 -7 -8 -8 -8 -9 -10 -12 -12 -12 -13 -13
3 3 3 2 2 2 2 1 1 0 0 -0 -0 -0 -0 -1 -1 -2 -2 -2 -2 -2 -3 -4 -4 -4 -5 -5 -5 -6 -8 -8 -8 -9 -10 -10 -12 -12 -12 -12 -13 -13 -13
2 2 2 2 1 2 2 1 0 0 1 1 0 -0 -1 -1 -2 -3 -3 -3 -3 -4 -4 -5 -6 -6 -7 -8 -8 -9 -9 -9 -10 -10 -12 -13 -12 -13 -13 -13 -13 -13 -13
2 2 1 1 1 2 0 0 -0 1 -0 -1 -0 -1 -1 -2 -3 -4 -4 -4 -5 -5 -6 -7 -7 -8 -9 -9 -9 -9 -10 -11 -12 -12 -13 -14 -14 -14 -14 -13 -14 -14 -14

GFSMA_700_temp_102.txt.gz
Temp
4 3 3 4 3 4 3 3 3 3 3 3 3 3 2 3 3 3 3 3 3 2 2 3 3 2 2 3 3 3 3 3 3 3 3 3 3 3 3 3 3 3 3
3 3 2 3 3 3 3 3 3 3 3 3 3 3 3 2 3 3 3 3 3 2 2 2 3 2 2 2 2 2 3 3 3 3 3 3 3 3 3 3 3 3 3
3 2 3 2 3 3 3 2 2 3 3 3 3 2 2 2 3 3 2 2 2 2 2 2 3 2 2 2 2 2 3 3 3 3 3 3 2 2 2 2 2 2 2
2 2 2 1 0 2 2 2 2 2 2 3 2 2 2 2 2 3 3 2 2 2 2 2 2 2 1 2 2 2 2 3 3 3 2 2 2 2 2 2 2 2 2
2 0 1 2 1 2 2 2 2 2 2 2 2 2 2 2 2 2 2 3 2 1 1 2 2 1 2 2 2 2 2 2 2 2 2 2 2 1 1 1 1 1 1
2 1 0 0 2 2 1 2 2 2 2 1 2 1 1 2 2 2 1 2 2 1 1 1 1 1 1 1 2 2 1 2 2 1 1 1 1 1 1 1 1 1 0
2 2 1 0 1 1 1 1 2 2 1 1 1 1 1 1 1 1 1 1 1 1 1 2 1 1 1 1 1 1 1 2 1 1 1 1 1 0 -0 0 0 0 -0
2 1 1 -0 -0 1 1 0 1 1 1 0 1 1 1 1 1 0 0 0 0 0 0 0 1 1 1 1 1 1 1 1 0 0 0 0 0 -0 -1 -1 -1 -1 -0
2 2 2 1 1 -0 -0 -1 1 1 0 0 0 0 1 1 1 0 0 0 0 0 0 0 0 0 0 1 1 1 1 0 -0 -0 -1 -1 -1 -1 -2 -2 -2 -1 -1
2 2 2 2 1 -0 -1 -0 -1 -1 -2 -1 -0 -0 0 1 1 1 1 1 0 -0 -0 -0 -1 -0 0 -0 -0 -0 1 0 -0 -1 -2 -2 -2 -2 -2 -2 -2 -2 -2
2 2 1 1 0 0 -2 -1 -2 -2 -1 -2 -2 -1 -1 -0 0 -0 1 1 0 0 -0 -0 -1 -0 -0 -0 -0 -0 -0 -0 0 -1 -1 -2 -1 -1 -1 -1 -2 -1 -1
2 2 2 1 0 0 -1 -1 -2 -2 -2 -1 -1 -1 -1 -1 -0 -0 0 0 -0 0 -0 -1 0 -0 -1 -1 -0 -0 -0 -0 -1 -0 -1 -1 -2 -1 -1 -2 -2 -2 -1
2 2 1 1 0 0 -0 -0 -2 -2 -2 -2 -2 -1 -1 -1 -1 -0 0 0 0 0 0 -0 0 -0 -0 -0 -0 -1 -1 -1 -1 -0 -0 -1 -2 -2 -2 -3 -3 -3 -4
1 1 0 0 0 -0 -0 -0 -0 -1 -2 -2 -2 -2 -1 -1 -1 0 0 0 1 0 -0 -0 -1 -0 -0 -1 -1 -1 -1 -1 -1 -1 -1 -1 -1 -2 -2 -3 -3 -3 -3
1 1 1 0 0 -0 -0 -0 -0 -0 -1 -1 -2 -1 -1 -0 -0 0 1 1 0 0 0 0 -0 -0 0 -1 -0 -1 -1 -1 -1 -1 -1 -1 -1 -2 -2 -3 -3 -4 -4
1 1 0 0 0 -0 -0 -1 -1 -1 -1 -1 -1 0 1 1 1 1 0 -0 -0 -0 -0 -1 -0 -1 -1 -1 -1 -1 -1 -1 -1 -1 -1 -1 -2 -2 -2 -2 -3 -3 -4
1 1 1 0 -0 -0 -0 -0 -1 -1 -1 1 1 1 1 1 0 0 -0 -0 -0 -0 0 0 -0 -0 -0 -1 -1 -1 -1 -2 -1 -2 -1 -1 -2 -2 -2 -2 -3 -4 -4
3 2 2 1 1 1 0 0 0 1 1 1 1 1 1 0 0 0 0 -0 -0 -0 -1 0 -1 -1 -1 -0 -1 -2 -2 -1 -2 -2 -2 -2 -2 -2 -2 -2 -3 -4 -4
3 3 3 3 3 2 2 2 1 1 1 1 1 1 0 -0 0 -0 -1 -1 -1 -1 -0 -0 -1 -0 -1 -2 -1 -1 -1 -2 -2 -2 -2 -2 -2 -2 -3 -4 -4 -3 -4
3 3 3 2 2 2 1 1 1 1 1 0 0 0 1 1 0 -0 1 -0 -0 -1 -0 -1 -1 -0 -1 -1 -2 -2 -2 -2 -3 -2 -3 -3 -3 -4 -5 -5 -5 -4 -4
3 2 2 2 1 1 2 2 1 1 1 1 0 0 0 0 -0 0 -0 0 0 -1 -0 -1 -1 -2 -3 -3 -2 -3 -3 -3 -3 -4 -4 -4 -4 -5 -5 -6 -6 -6 -6
3 3 2 2 3 3 3 2 1 0 0 0 0 0 -0 0 0 -1 -0 -1 -1 -1 -1 -1 -2 -2 -2 -3 -2 -4 -5 -5 -5 -4 -5 -5 -6 -6 -6 -7 -7 -7 -8
4 4 3 3 3 3 2 2 2 1 0 -1 -0 1 0 0 -0 -1 -1 -1 -1 -1 -1 -2 -2 -2 -3 -4 -4 -4 -5 -5 -5 -6 -6 -6 -7 -7 -8 -8 -8 -9 -9
4 4 4 3 3 3 3 3 1 0 -0 0 0 0 -1 0 -1 -1 -1 -1 -2 -2 -3 -2 -2 -3 -4 -5 -5 -6 -6 -6 -7 -8 -8 -8 -8 -8 -9 -9 -9 -9 -10
5 4 4 4 3 2 1 1 0 -0 -0 1 0 0 -0 -1 -1 -1 -1 -2 -2 -3 -3 -4 -5 -6 -6 -7 -7 -7 -8 -8 -8 -9 -10 -10 -10 -10 -10 -10 -11 -11 -12
4 4 3 2 1 1 0 0 1 1 0 -0 -1 -2 -1 -2 -2 -3 -3 -3 -4 -4 -5 -6 -6 -7 -7 -8 -8 -8 -9 -10 -10 -10 -12 -12 -13 -14 -13 -12 -13 -14 -14

GFSMA_700_temp_105.txt.gz
Temp
3 3 4 4 4 4 4 3 3 4 4 4 4 4 4 4 4 4 4 3 2 2 3 3 3 3 3 3 3 3 3 3 3 3 3 3 3 3 3 3 3 3 3
3 3 3 4 3 3 3 3 3 3 3 4 4 4 4 4 4 4 4 3 2 2 2 2 2 2 2 2 2 3 3 3 3 3 3 3 3 2 2 2 2 2 2
3 3 3 4 3 3 3 3 3 2 3 3 3 3 3 3 3 3 3 3 2 2 2 2 2 2 2 2 2 2 3 3 2 2 2 2 2 2 2 2 2 2 2
2 3 3 3 3 3 3 2 2 3 2 3 2 2 3 3 3 3 3 2 2 2 2 2 2 2 1 2 2 2 2 2 2 1 2 2 2 2 1 1 1 1 1
2 2 2 2 1 2 2 2 2 2 3 2 2 2 2 3 3 3 3 2 2 2 2 2 1 1 2 2 2 2 2 2 2 1 1 1 1 1 1 1 1 1 1
3 2 2 2 1 2 2 2 2 2 2 2 2 2 1 2 2 2 2 3 2 1 1 1 1 2 2 1 1 2 2 2 1 1 1 1 1 1 0 0 0 0 0
2 2 1 1 1 1 2 2 2 2 2 1 1 1 1 1 1 1 2 2 2 1 1 1 1 1 1 1 1 1 1 1 1 1 1 1 0 -0 -0 -1 -1 -1 -1
2 2 2 1 1 1 1 1 1 1 1 1 1 1 1 1 1 1 0 1 1 1 1 1 1 1 0 0 0 1 0 0 -0 -0 0 0 0 -0 0 -0 -0 -1 -1
2 2 1 1 1 1 1 1 0 -0 1 1 1 1 1 1 1 1 0 0 0 1 1 0 1 0 0 -0 -0 -0 -0 -1 -0 -0 0 0 0 -0 0 -0 -1 -1 -1
2 3 2 2 2 1 1 1 0 0 0 -0 0 -1 -1 -1 0 0 0 -0 0 0 -0 -0 -0 0 0 1 0 0 0 -0 -0 -0 -0 -0 -0 -1 -1 -1 -1 -1 -1
2 2 2 1 2 1 1 1 0 -1 -2 -1 -1 -2 -2 -1 -1 -0 -0 -1 -0 0 -0 -0 0 1 1 1 0 0 1 -0 -1 -1 -1 -1 -0 -0 -1 -1 -2 -1 -1
2 2 2 2 1 2 1 1 -0 -1 -1 -2 -1 -2 -1 -2 -2 -1 -1 -1 -1 -0 -0 0 0 0 0 -0 -0 -0 0 -0 -0 -1 -1 -1 -1 -1 -1 -1 -1 -2 -2
2 2 2 1 1 1 1 0 -1 -1 -1 -1 -1 -1 -2 -2 -2 -2 -2 -1 -1 -1 -0 0 1 0 0 -0 -1 -1 -1 -1 -1 -1 -1 -1 -1 -1 -1 -1 -2 -2 -2
2 2 2 2 1 1 -0 -0 -1 -1 -1 -1 -1 -2 -2 -2 -2 -2 -1 -1 -0 -0 0 1 1 0 -0 -1 -1 -0 -1 -1 -1 -1 -1 -1 -1 -1 -1 -1 -1 -2 -2
2 1 2 2 0 -0 -1 -0 -0 -0 -1 -1 -1 -1 -1 -1 -1 -1 -1 -1 -1 0 1 1 1 0 -1 -1 -1 -1 -1 -1 -1 -1 -1 -1 -1 -1 -2 -2 -2 -2 -2
1 1 1 0 0 0 0 -0 -0 -1 -0 -1 -1 -1 -1 -1 -1 -1 -1 -0 -0 -0 -0 0 0 -0 -1 -0 -1 -1 -1 -1 -1 -1 -1 -1 -2 -1 -2 -2 -2 -2 -2
1 1 1 1 1 -0 -0 -0 -0 -0 -1 -1 -1 -1 -1 -1 -1 -0 0 -0 0 0 -0 -0 -1 -1 -1 -1 -1 -1 -1 -1 -1 -1 -1 -1 -1 -1 -1 -2 -2 -2 -2
2 1 1 1 0 -1 -0 -1 -0 -0 -1 -1 -1 -1 -0 -0 1 0 0 1 0 -0 -0 -1 -0 -0 -0 -1 -1 -1 -1 -1 -1 -1 -1 -1 -2 -2 -2 -2 -3 -2 -2
3 3 3 2 1 1 1 1 0 -0 -0 -0 -1 -1 -1 1 1 1 0 0 0 -0 -0 -1 -0 -1 -1 -1 -1 -1 -3 -2 -1 -1 -1 -1 -1 -2 -2 -3 -3 -3 -3
3 3 3 3 2 2 2 1 1 1 -0 -1 -1 0 1 0 0 0 0 -0 -1 -1 -0 -1 -1 -1 -1 -2 -2 -2 -2 -1 -1 -2 -2 -2 -3 -4 -5 -5 -5 -5 -5
3 3 3 2 2 2 2 2 1 0 -0 -0 -0 -0 -1 -1 -1 -0 -0 0 0 -1 -1 -1 -1 -2 -1 -2 -2 -2 -2 -1 -2 -2 -3 -4 -4 -5 -6 -6 -5 -6 -6
3 3 3 3 3 3 2 2 2 1 1 -1 -1 -0 -0 0 -0 -0 -1 -0 -1 -1 -1 -1 -2 -2 -2 -2 -2 -2 -2 -3 -3 -4 -4 -5 -6 -5 -6 -6 -6 -6 -7
3 3 3 3 3 3 2 2 1 -0 -1 -1 -0 -1 -0 -0 -1 -0 -1 -1 -1 -1 -2 -1 -2 -2 -2 -3 -3 -3 -4 -4 -5 -5 -5 -5 -6 -7 -7 -7 -8 -8 -9
4 4 4 3 3 3 2 1 -0 -1 -1 -1 -0 0 -0 -0 -0 -1 -1 -2 -2 -2 -2 -2 -3 -3 -4 -4 -4 -5 -5 -5 -6 -7 -6 -7 -7 -7 -8 -9 -10 -11 -11
4 4 3 3 3 2 2 1 -0 -1 0 0 -0 0 -0 -0 -2 -1 -1 -2 -2 -2 -2 -3 -4 -5 -5 -6 -6 -7 -7 -8 -8 -9 -9 -10 -10 -9 -10 -11 -12 -12 -13
4 3 3 2 0 0 -0 0 0 -0 0 -0 0 -1 -2 -2 -3 -3 -3 -3 -3 -4 -4 -5 -6 -6 -7 -7 -8 -8 -9 -9 -10 -10 -11 -12 -12 -13 -11 -11 -13 -14 -15

GFSMA_700_temp_108.txt.gz
Temp
2 2 3 3 4 3 3 3 3 3 3 4 4 4 3 4 4 4 5 4 4 4 3 3 3 3 3 3 3 3 3 3 3 3 3 3 3 3 2 3 2 2 2
2 3 3 4 4 4 4 3 3 3 3 3 4 4 3 4 4 4 5 4 3 3 3 3 2 2 2 2 2 3 3 3 3 2 3 3 3 2 2 2 2 2 2
2 2 3 3 3 3 3 2 2 2 3 3 3 3 3 3 4 4 4 3 3 3 2 2 2 2 2 2 2 2 2 2 2 2 2 2 3 2 2 2 2 2 1
1 3 3 3 3 3 2 2 2 3 3 2 3 3 3 3 3 3 3 3 2 2 2 2 2 2 1 2 2 2 2 2 2 2 2 2 2 2 2 1 1 1 1
2 2 3 3 3 3 2 2 3 3 3 2 2 3 3 3 3 2 2 2 2 2 2 1 1 1 1 1 1 2 2 2 2 2 1 1 2 1 1 1 1 1 1
2 3 2 3 3 3 3 3 2 2 2 2 2 2 3 3 2 2 1 1 1 1 2 2 1 1 1 1 1 1 1 1 1 1 1 1 1 0 0 1 1 1 0
2 2 2 2 2 3 3 3 2 2 2 1 1 1 2 2 2 2 2 2 1 1 1 1 1 1 1 1 1 1 1 1 1 0 1 0 0 0 0 0 1 0 -0
3 2 2 2 2 2 1 2 2 3 1 1 1 1 2 2 2 1 1 1 0 0 0 0 0 0 0 0 0 0 0 0 0 -0 0 0 -0 -0 -0 -1 -1 -1 -1
3 2 2 2 2 2 1 2 2 2 2 2 1 1 1 1 1 0 0 0 0 0 0 0 0 -0 -0 -0 -0 0 0 0 -0 -0 -0 -0 -0 -0 -1 -1 -1 -1 -1
2 2 2 2 2 1 1 1 2 2 1 1 1 1 0 -0 -1 -1 -1 -0 -0 -0 -0 -0 0 0 0 0 0 0 -0 -1 -0 -1 -1 -1 -1 -1 -1 -1 -2 -2 -1
2 2 2 1 2 1 1 1 1 1 0 1 -0 0 0 -1 -2 -1 -2 -2 -1 -1 -1 -0 -0 0 0 0 0 -0 -1 -1 -1 -1 -1 -1 -1 -1 -1 -1 -2 -2 -1
2 2 2 2 2 2 1 0 0 0 -0 -0 -0 -1 -1 -2 -2 -1 -2 -2 -2 -2 -2 -1 -1 -0 -0 -0 -0 -0 -1 -1 -1 -1 -1 -1 -1 -2 -1 -2 -1 -2 -2
1 1 2 2 2 1 1 0 0 1 0 -0 -0 -0 -1 -1 -1 -1 -2 -1 -2 -2 -1 -1 -1 -0 -0 -1 -1 -1 -1 -1 -1 -1 -1 -1 -1 -1 -2 -2 -2 -2 -1
2 2 2 2 2 1 1 0 0 0 -0 -1 -1 -1 -1 -1 -1 -2 -2 -2 -2 -1 -1 0 -0 0 -0 -1 -1 -1 -1 -1 -1 -1 -0 -0 -1 -1 -1 -1 -1 -2 -2
2 1 1 2 2 2 1 0 -0 -0 -0 -0 -0 -1 -1 -1 -1 -1 -1 -1 -1 -1 -1 1 1 0 -0 -1 -1 -1 -1 -1 -1 -1 -1 -1 -2 -1 -1 -2 -2 -2 -1
1 1 1 1 0 1 1 1 0 -1 -1 -0 -1 -1 -1 -1 -1 -1 -1 -1 -1 -1 -1 -0 1 1 0 -0 -0 -1 -1 -1 -1 -1 -1 -1 -1 -1 -1 -1 -2 -2 -2
2 1 1 2 1 1 0 -0 -1 -0 -0 -1 -1 -1 -1 -1 -1 -1 -1 -1 -1 -1 -1 1 0 0 0 -0 -0 -0 -0 -1 -1 -1 -2 -1 -1 -2 -1 -1 -2 -2 -2
2 1 1 2 1 1 0 -0 -0 -1 -1 -1 -1 -1 -1 -1 -1 -1 -1 -1 -1 -0 -1 -1 -1 -0 -0 -1 -1 -0 -1 -1 -2 -1 -1 -1 -1 -2 -1 -1 -2 -2 -3
2 2 1 1 1 1 0 0 -1 -1 -0 -1 -1 -1 -1 -2 -2 -1 -1 -0 -0 -0 -0 -1 -1 -1 -1 -2 -1 -2 -1 -1 -1 -1 -2 -2 -1 -1 -1 -1 -1 -1 -2
3 3 2 2 2 1 1 0 -1 -1 -1 -1 -1 -2 -2 -1 0 -0 0 -0 -0 -0 -0 0 -1 -1 -1 -1 -2 -2 -2 -3 -2 -2 -2 -1 -2 -2 -3 -3 -3 -4 -4
3 3 3 2 2 2 2 1 1 0 0 -0 0 0 0 0 -0 -1 -1 -1 -0 -1 -0 -1 -1 -1 -1 -2 -2 -2 -1 -3 -3 -2 -2 -3 -3 -3 -4 -4 -4 -5 -5
3 3 3 3 3 3 2 2 1 1 0 0 0 0 -0 -1 -1 0 -0 0 -1 -1 -1 -1 -1 -2 -2 -2 -0 -2 -2 -3 -2 -3 -2 -3 -4 -4 -5 -5 -6 -6 -7
3 3 3 3 3 3 2 2 1 1 0 -1 -1 -1 -1 -1 -1 -0 -1 -0 -1 -1 -1 -2 -1 -2 -2 -2 -3 -3 -3 -4 -3 -3 -3 -3 -4 -5 -6 -7 -8 -8 -8
3 3 3 3 3 3 3 2 1 0 0 -0 -0 0 -0 -1 -1 -1 -1 -1 -2 -2 -2 -3 -3 -3 -3 -4 -4 -4 -4 -4 -5 -5 -4 -5 -5 -6 -7 -8 -10 -10 -11
4 4 4 4 3 3 2 1 -1 -1 -0 -1 -0 -1 -1 -1 -1 -1 -2 -3 -3 -4 -3 -3 -4 -5 -5 -5 -5 -6 -6 -6 -7 -8 -8 -8 -8 -8 -9 -10 -11 -12 -13
4 4 3 3 1 0 0 0 -1 -1 -1 -0 -0 -0 -1 -1 -2 -3 -3 -4 -5 -4 -4 -5 -5 -6 -6 -7 -7 -8 -8 -8 -9 -10 -11 -11 -12 -12 -11 -12 -14 -15 -15

GFSMA_700_temp_111.txt.gz
Temp
3 2 2 2 3 3 2 3 4 4 4 4 4 4 4 4 4 4 4 3 3 3 3 3 3 3 3 3 3 3 3 3 3 3 3 3 3 3 3 2 3 3 3
2 2 2 2 3 3 2 2 4 4 4 4 4 3 4 4 4 4 4 4 3 3 2 2 2 2 2 3 2 3 3 3 2 2 2 3 2 2 2 2 2 2 2
2 2 2 1 2 2 2 2 2 3 4 4 3 3 4 4 3 4 3 3 3 3 2 2 2 2 2 2 2 2 2 2 2 2 2 2 2 2 2 2 1 1 1
2 2 2 2 3 2 2 2 2 2 4 3 3 3 3 3 3 3 3 2 2 2 2 2 2 2 2 2 2 2 2 2 2 2 2 1 2 1 1 1 1 1 1
3 2 2 2 2 2 2 1 2 3 3 3 3 3 3 3 3 2 2 2 2 2 2 2 2 1 1 2 2 1 1 1 1 1 1 1 1 1 0 0 0 0 1
2 2 1 2 2 2 2 2 2 3 2 3 3 3 2 2 2 2 2 2 2 2 2 2 2 1 1 1 1 1 1 1 1 1 1 0 0 0 -0 -0 -0 -0 0
2 2 2 2 2 2 2 2 2 2 2 2 2 2 2 2 2 2 1 2 2 1 1 1 1 1 1 1 0 0 0 0 0 -0 -0 -0 -0 -0 -1 -1 -1 -1 -0
1 1 1 1 2 2 2 2 2 2 1 2 2 2 2 2 2 2 2 1 1 1 1 0 1 1 0 0 0 0 -0 -0 -0 -0 -0 -0 -0 -0 -1 -1 -1 -1 -1
2 1 1 2 2 2 2 2 2 2 2 2 2 2 2 2 2 2 1 0 -0 -0 -0 -0 0 -0 -0 -0 -0 -0 -0 -0 -1 -0 -0 -0 -1 -0 -1 -1 -2 -1 -2
2 1 1 2 2 2 2 2 2 2 2 2 2 1 1 1 2 2 1 -0 -0 -1 -1 -1 -1 -1 -1 -1 -0 -0 -1 -1 -1 -1 -1 -1 -2 -2 -1 -1 -1 -2 -1
2 1 1 2 2 2 2 1 1 2 1 1 1 1 1 1 0 0 -1 -1 -1 -2 -1 -1 -1 -1 -1 -1 -0 -0 -1 -1 -1 -1 -1 -2 -1 -1 -1 -1 -1 -2 -2
2 2 2 2 1 1 0 -0 0 -0 1 1 0 0 0 1 -0 -1 -1 -2 -2 -2 -2 -2 -2 -1 -1 -1 -1 -0 -1 -1 -1 -2 -1 -1 -1 -1 -1 -1 -1 -1 -1
2 2 2 2 2 2 1 -0 -0 -1 -0 -1 -0 -0 -0 -1 -1 -1 -1 -1 -1 -2 -2 -2 -2 -2 -1 -1 -1 -1 -1 -2 -1 -1 -1 -1 -1 -1 -1 -1 -1 -1 -2
2 2 2 2 2 2 1 1 0 -1 -1 -1 -1 -1 -0 -1 -1 -1 -1 -2 -1 -1 -1 -1 -1 -1 -1 -1 -1 -1 -1 -2 -1 -1 -1 -1 -1 -1 -1 -1 -1 -1 -1
2 2 2 1 2 1 1 1 0 0 -0 0 -0 -0 -0 -1 -1 -1 -1 -1 -2 -1 -1 -1 -0 -1 -1 -1 -1 -1 -1 -1 -1 -1 -1 -1 -1 -1 -1 -1 -2 -1 -1
2 1 2 1 1 1 1 0 0 -0 -0 0 -0 -1 -0 -1 -1 -1 -1 -1 -1 -1 -1 -1 -0 -0 -1 -1 -1 -1 -1 -1 -1 -1 -1 -1 -1 -1 -2 -2 -2 -1 -1
1 1 1 1 2 1 1 1 1 -0 -0 -0 -0 -1 -1 -1 -1 -1 -1 -1 -1 -1 -1 -1 -1 -1 -0 0 -0 -0 -1 -1 -1 -1 -1 -1 -1 -1 -2 -2 -2 -2 -1
1 1 1 1 1 1 0 0 0 -0 1 -0 -0 -1 -1 -1 -1 -1 -1 -1 -1 -1 -2 -1 -0 -1 -1 -1 -1 -1 -1 -0 -1 -1 -2 -1 -1 -1 -2 -2 -2 -2 -1
2 2 1 1 1 1 1 -0 1 -0 -0 -0 -0 -0 -1 -1 -1 -1 -1 -1 -2 -2 -1 -1 -1 -0 -1 -1 -1 -1 -1 -2 -1 -2 -2 -2 -2 -2 -3 -3 -3 -2 -2
2 2 1 1 1 1 1 0 -0 0 -0 -0 -0 -1 -1 -1 -1 -1 -1 -1 -1 -1 -1 -1 -1 -0 -1 -1 -1 -2 -1 -2 -2 -2 -3 -3 -3 -3 -3 -3 -3 -4 -3
3 2 2 1 1 1 1 1 -1 -1 -1 -0 -1 -1 -1 -1 -1 -1 -1 -1 -1 -1 -1 -1 -1 -2 -1 -1 -1 -1 -1 -2 -2 -2 -2 -3 -3 -3 -4 -4 -5 -5 -5
3 3 3 3 3 2 2 1 1 1 1 0 0 -1 -1 -2 -1 -0 -1 -1 -2 -1 -1 -0 -1 -1 -1 -2 -2 -2 -1 -2 -2 -3 -2 -3 -4 -4 -4 -4 -5 -5 -6
4 4 4 3 3 3 2 2 2 1 1 0 -1 -1 -1 -1 -1 -0 -0 -0 -1 -1 -1 -1 -2 -2 -3 -3 -2 -3 -3 -3 -3 -2 -2 -3 -3 -4 -4 -6 -7 -8 -8
4 4 3 3 3 3 2 2 1 1 1 -0 -1 -1 -1 -1 -1 -0 -1 -1 -1 -2 -1 -2 -3 -2 -3 -3 -3 -3 -3 -4 -4 -4 -4 -4 -5 -5 -6 -8 -9 -10 -11
3 3 3 3 3 3 3 2 1 1 -1 -1 -1 -2 -2 -1 -1 -0 -1 -1 -1 -2 -3 -3 -3 -4 -3 -4 -4 -4 -5 -5 -6 -7 -7 -7 -7 -7 -9 -10 -11 -13 -13
3 3 3 3 3 3 2 0 -1 -1 -2 -1 -1 -1 -1 -1 -1 -1 -1 -2 -3 -3 -4 -5 -5 -4 -4 -5 -5 -6 -6 -7 -7 -8 -10 -10 -11 -11 -9 -10 -12 -15 -16

GFSMA_700_temp_117.txt.gz
Temp
3 2 2 1 3 2 2 1 3 3 3 3 2 3 3 2 2 4 3 3 3 3 3 3 3 3 3 3 3 3 3 3 2 2 2 2 2 3 3 3 3 3 3
2 2 2 2 1 2 2 1 2 3 3 2 2 3 3 2 3 3 3 3 3 3 3 3 3 3 3 2 2 2 2 2 2 2 2 2 2 2 2 2 2 2 2
3 2 2 2 2 2 2 1 3 2 2 2 2 2 2 2 3 3 3 3 3 3 3 2 2 2 2 2 2 2 2 2 2 2 2 2 2 2 2 2 2 2 2
3 3 2 2 2 1 2 2 1 2 2 2 2 2 2 2 2 3 3 3 3 3 2 2 2 2 2 2 2 2 2 2 1 2 2 1 1 1 1 1 1 2 2
3 2 2 2 3 2 1 2 2 2 2 2 2 1 1 1 2 2 2 3 3 2 2 2 2 2 2 1 1 2 2 1 1 1 1 1 1 1 1 1 1 1 1
3 2 2 2 3 2 2 2 2 2 2 2 2 1 1 1 2 2 2 2 2 2 2 2 2 1 1 1 1 1 1 1 1 0 1 1 1 1 1 1 1 1 1
2 2 3 2 2 2 2 2 1 2 2 1 1 1 0 1 1 1 2 2 2 2 2 2 1 1 1 0 0 1 0 0 0 0 0 1 1 1 0 0 0 0 0
3 2 2 2 2 2 2 2 2 2 2 2 1 1 1 1 1 1 2 2 2 2 1 1 1 1 0 0 -0 -0 -0 -0 -0 -0 -0 -0 -0 -0 -0 -0 -0 -0 -0
3 2 2 2 3 2 1 1 2 2 2 2 2 1 2 1 1 1 2 1 1 1 0 -0 -1 -1 -0 -0 -0 -1 -1 -1 -1 -1 -1 -1 -1 -1 -0 -0 -0 -0 -1
3 1 2 2 2 2 2 0 2 2 2 2 2 2 1 1 1 2 1 1 1 1 -0 -0 -1 -1 -0 -1 -1 -1 -1 -1 -1 -1 -1 -1 -1 -1 -1 -1 -1 -0 -0
3 1 1 1 2 1 1 1 1 2 2 2 3 2 2 1 0 0 1 1 1 0 -1 -1 -2 -1 -1 -1 -1 -1 -1 -1 -1 -2 -1 -1 -1 -1 0 0 -1 -1 -1
2 2 1 1 1 2 1 1 1 1 2 2 2 1 2 2 2 1 1 0 -0 -0 -1 -1 -2 -2 -2 -2 -2 -2 -1 -2 -1 -1 -1 -2 -1 -0 -0 -0 -1 -1 -1
2 2 2 1 1 1 1 1 1 1 1 2 2 2 1 1 0 0 -0 -0 -1 -1 -2 -2 -2 -2 -2 -2 -2 -2 -1 -1 -1 -1 -1 -1 -1 -1 -1 -1 -1 -1 -1
3 2 2 1 1 1 -0 -0 0 1 1 1 1 1 1 0 -0 -0 -0 -1 -1 -2 -1 -1 -2 -2 -2 -2 -2 -1 -1 -2 -1 -1 -0 -1 -1 -1 -0 -1 -1 -1 -1
2 2 2 2 2 1 1 1 0 1 1 1 1 1 -0 -0 -1 -1 -1 -1 -2 -2 -2 -1 -2 -1 -1 -2 -1 -1 -2 -1 -1 -1 -1 -1 -2 -1 -1 -1 -1 -1 -1
2 2 2 2 2 1 1 1 1 1 1 1 1 1 -1 -1 -2 -2 -2 -1 -1 -1 -1 -1 -1 -1 -2 -1 -1 -1 -2 -1 -1 -1 -1 -1 -1 -1 -1 -1 -1 -1 -1
3 2 2 2 2 0 1 1 1 1 -0 -1 -1 -1 -1 -2 -1 -2 -1 -1 -1 -1 -1 -1 -1 -2 -1 -1 -1 -1 -1 -1 -1 -1 -1 -1 -0 -1 -1 -1 -1 -1 -2
2 2 2 2 2 1 1 2 1 1 1 1 0 0 -0 -1 -1 -1 -1 -1 -1 -1 -1 -1 -1 -1 -1 -1 -1 -1 -1 -1 -1 -1 -1 -2 -2 -1 -2 -1 -2 -2 -2
2 1 1 1 1 2 1 2 2 1 1 1 0 -0 0 -0 -1 -0 -1 -1 -1 -1 -1 -1 -1 -2 -1 -1 -1 -1 -1 -1 -1 -2 -2 -1 -2 -1 -2 -3 -3 -2 -2
2 1 1 1 0 1 1 1 1 1 1 1 0 0 0 -0 -0 -1 -1 -1 -1 -1 -1 -1 -1 -2 -2 -1 -1 -1 -1 -2 -2 -2 -2 -2 -2 -2 -3 -3 -2 -2 -2
2 2 2 1 1 1 1 0 0 1 1 0 -0 0 0 -0 -1 -1 -1 -1 -1 -1 -1 -1 -1 -1 -2 -1 -2 -1 -2 -2 -2 -2 -2 -2 -3 -3 -3 -4 -4 -4 -4
3 3 2 1 1 1 1 1 0 0 -0 -0 1 0 -0 -0 -1 -1 -1 -1 -1 -1 -1 -2 -1 -2 -1 -2 -2 -2 -2 -3 -2 -3 -3 -4 -5 -5 -5 -5 -5 -5 -5
3 3 2 2 2 0 1 0 0 0 -0 -0 -0 -0 -0 -0 -1 -1 -1 -1 -2 -2 -2 -2 -2 -2 -1 -2 -2 -2 -2 -3 -3 -4 -5 -5 -5 -5 -5 -5 -6 -7 -7
3 3 3 2 1 1 0 0 0 -0 -0 -0 -0 -0 -0 -1 -1 -1 -2 -2 -1 -1 -2 -1 -1 -2 -2 -2 -2 -3 -4 -5 -5 -5 -5 -5 -5 -5 -6 -7 -8 -9 -9
3 3 2 2 1 1 1 0 -0 -1 -1 -0 -0 -1 -1 -1 -1 -1 -1 -1 -1 -1 -1 -1 -2 -2 -2 -3 -4 -5 -6 -6 -8 -7 -6 -6 -7 -6 -7 -8 -9 -9 -9
2 3 2 2 1 1 0 -0 -1 -1 -0 -1 -1 -1 -2 -2 -2 -2 -2 -1 -1 -2 -2 -2 -2 -4 -5 -5 -5 -6 -7 -8 -6 -7 -6 -7 -8 -8 -6 -7 -10 -11 -12

GFSMA_700_temp_123.txt.gz
Temp
5 4 4 3 3 3 3 2 2 1 0 2 3 3 3 2 4 3 3 3 3 4 4 3 3 4 4 4 4 4 4 4 3 3 3 3 3 3 3 3 3 3 3
5 4 3 3 3 2 2 2 1 1 1 2 2 3 3 3 3 3 3 3 3 4 3 3 4 4 4 4 3 4 4 3 3 3 2 3 3 3 3 3 3 3 3
5 5 4 3 3 3 2 2 1 2 1 1 2 2 2 3 3 3 3 3 3 3 3 3 3 3 3 3 3 3 3 3 3 2 2 2 2 3 3 2 3 3 2
6 5 5 4 4 3 3 2 1 2 2 2 2 2 2 2 2 3 3 3 3 3 3 3 3 3 3 3 3 3 3 2 2 2 2 2 2 2 2 2 2 2 2
6 5 5 5 4 4 3 2 2 1 1 2 2 2 2 2 3 3 3 3 2 3 3 3 3 3 2 2 2 2 2 2 2 2 2 2 2 2 2 2 2 2 2
6 5 5 5 5 4 3 2 1 2 -0 2 2 1 1 3 2 2 3 2 3 3 3 3 2 2 2 2 2 2 2 1 1 1 1 1 1 1 1 1 1 1 1
6 6 5 5 5 4 4 2 1 1 0 1 2 1 1 2 2 2 3 3 3 3 3 2 2 2 2 2 2 1 1 1 1 1 1 1 0 0 1 0 0 1 1
6 6 5 5 4 4 4 3 2 2 2 1 1 1 1 1 1 2 2 3 3 3 2 2 2 2 1 1 1 1 1 1 1 1 1 0 0 0 0 0 1 1 0
6 6 5 4 4 3 3 3 2 2 1 0 1 2 2 1 2 2 2 2 3 3 3 2 2 1 1 0 0 0 0 1 0 0 0 0 0 0 0 0 -0 -0 -0
6 6 5 4 4 4 3 2 2 1 1 1 1 1 1 2 3 3 3 2 2 2 2 2 2 1 1 1 1 1 -0 0 1 0 0 -0 -0 -0 -1 -1 -1 -1 -1
6 6 5 4 4 4 3 2 2 2 1 2 1 1 1 1 2 2 3 3 2 2 2 1 1 1 1 1 0 0 0 -0 -0 -0 -1 -1 -1 -1 -1 -1 -1 -1 -0
6 6 5 4 3 4 2 2 2 1 2 1 1 1 2 1 2 1 2 2 2 2 2 1 1 0 0 -0 -0 0 -0 -1 -1 -1 -1 -2 -1 -1 -1 -1 -1 -1 -1
6 6 4 4 3 3 2 2 2 2 1 1 0 1 1 1 2 1 -0 1 1 1 1 0 0 -1 -1 -0 -0 -1 -1 -1 -1 -2 -2 -2 -2 -1 -1 -0 -1 -1 -1
6 6 4 3 3 3 1 1 2 2 2 2 1 -0 1 1 2 1 0 0 1 1 1 0 -0 -0 0 -1 -1 -2 -2 -2 -2 -2 -2 -1 -1 -1 -1 -1 -1 -1 -1
6 5 4 4 3 3 2 1 1 2 2 1 1 1 0 1 1 1 1 -0 1 1 1 0 -0 -1 -1 -1 -1 -2 -2 -2 -1 -1 -1 -1 -1 -1 -2 -1 -1 -1 -1
6 5 4 4 4 3 2 1 1 1 1 2 0 0 0 1 1 0 1 0 1 -0 -0 -0 -1 -1 -1 -1 -2 -2 -2 -2 -1 -1 -1 -1 -1 -1 -2 -1 -1 -1 -1
6 5 4 3 3 3 3 2 2 1 1 1 1 -1 0 1 1 1 1 1 0 -0 -0 -1 -2 -2 -2 -2 -2 -1 -1 -2 -1 -1 -1 -1 -1 -1 -1 -1 -1 -1 -1
6 4 4 4 3 3 2 2 1 1 1 1 0 -1 1 1 1 1 1 0 -0 -0 -1 -1 -2 -2 -2 -2 -1 -1 -2 -2 -2 -1 -1 -1 -1 -1 -1 -1 -1 -1 -2
6 4 4 4 4 3 2 2 2 1 0 1 -0 -1 -1 0 1 1 0 0 -0 -2 -2 -2 -2 -2 -2 -2 -2 -2 -2 -2 -1 -1 -1 -1 -1 -1 -1 -1 -2 -2 -2
5 4 4 3 3 3 3 2 2 1 0 0 -0 -0 -0 -0 0 0 -0 -1 -2 -2 -1 -2 -2 -2 -2 -2 -2 -2 -2 -1 -1 -1 -1 -1 -1 -1 -2 -2 -2 -2 -3
5 4 3 3 3 3 2 2 2 1 1 0 0 0 -0 -0 0 -0 0 -1 -1 -1 -1 -1 -2 -2 -2 -1 -1 -2 -2 -1 -1 -2 -1 -2 -2 -2 -2 -3 -3 -3 -4
5 4 4 4 3 3 2 2 1 1 1 1 1 0 0 0 -0 -0 -0 -0 -0 -1 -0 -1 -1 -1 -2 -2 -2 -2 -1 -1 -2 -2 -1 -1 -2 -2 -3 -4 -4 -5 -4
4 4 4 4 3 3 2 2 1 0 0 1 1 0 0 0 0 0 -1 -0 -1 -1 -1 -1 -1 -1 -1 -1 -1 -2 -2 -1 -2 -2 -2 -2 -3 -4 -5 -5 -5 -6 -5
4 4 4 4 3 3 3 2 1 0 0 0 0 -0 -0 -0 -0 -0 -1 -1 -1 -1 -1 -1 -1 -1 -1 -1 -2 -2 -2 -1 -2 -2 -4 -4 -4 -5 -7 -7 -7 -7 -7
4 4 4 3 3 3 2 2 2 2 1 0 -0 -0 -0 -0 -0 -1 -0 -1 -1 -1 -1 -1 -1 -1 -2 -2 -2 -2 -2 -2 -3 -4 -5 -5 -6 -7 -7 -7 -7 -8 -8
3 4 4 3 3 3 2 1 2 2 1 1 0 -0 -0 -0 -0 -1 -1 -1 -1 -1 -1 -1 -1 -1 -1 -1 -2 -2 -3 -4 -5 -5 -6 -6 -6 -7 -8 -8 -8 -9 -10

GFSMA_700_temp_126.txt.gz
Temp
6 6 5 4 4 3 3 3 2 2 2 2 2 2 2 2 3 4 4 4 4 4 4 4 4 4 4 5 4 5 4 4 5 4 4 3 3 3 3 3 3 3 3
6 6 5 5 4 3 3 2 2 2 2 1 3 3 3 2 3 5 3 4 4 4 4 4 4 4 4 4 4 4 4 4 4 4 3 3 3 3 3 3 3 3 3
7 6 6 5 4 3 3 2 2 2 2 1 2 2 3 1 2 4 3 4 4 4 4 4 4 4 4 4 4 4 4 4 4 3 3 3 3 3 3 3 3 3 3
7 6 6 5 5 4 3 3 2 1 1 2 2 2 1 2 3 4 4 4 4 4 4 4 4 3 4 3 3 3 3 3 3 3 3 2 2 2 2 2 2 2 2
7 7 6 6 5 5 4 3 3 2 2 2 2 2 1 2 3 3 4 3 4 4 3 3 4 3 3 3 3 3 3 3 2 2 2 2 2 2 2 2 2 1 1
7 7 6 6 5 5 4 4 3 2 1 1 2 1 1 0 2 2 4 4 4 4 3 3 3 3 3 3 2 2 2 2 2 2 2 2 2 2 1 1 1 1 1
7 7 6 6 5 5 4 4 3 2 2 1 2 1 -0 0 2 2 3 3 4 4 3 3 3 3 3 2 2 2 2 2 2 2 2 1 1 1 1 1 0 1 0
8 7 6 6 5 5 5 4 4 3 2 2 1 1 1 0 0 2 2 2 3 3 3 3 3 3 2 2 2 2 2 1 1 1 1 1 1 0 0 0 0 0 -0
7 7 6 6 6 5 5 4 4 3 3 2 1 1 1 1 1 0 2 2 3 3 3 3 3 2 2 2 1 1 1 1 1 1 1 0 0 -0 -0 -0 -1 -1 -1
8 7 6 6 6 5 5 4 3 2 2 2 1 0 1 2 2 2 2 2 2 3 3 3 2 2 2 1 1 1 1 1 0 0 -0 -0 -0 -1 -1 -1 -1 -1 -1
7 7 6 6 6 6 5 4 3 2 3 2 1 1 0 1 1 2 3 2 2 3 2 2 2 2 2 1 2 2 1 1 -0 -1 -1 -1 -1 -1 -1 -1 -1 -1 -1
7 6 6 6 6 5 4 4 3 3 3 2 1 1 1 0 1 1 1 2 3 3 3 2 2 2 1 1 1 1 0 -0 -1 -1 -1 -1 -1 -2 -2 -2 -2 -1 -1
6 6 6 6 6 5 4 3 2 2 3 2 1 1 1 0 1 1 1 2 2 2 2 2 1 1 0 1 0 0 -0 -1 -1 -2 -2 -2 -2 -2 -1 -2 -1 -1 -1
6 5 5 6 5 4 3 3 2 2 2 2 2 2 1 -1 0 1 1 2 2 1 1 1 2 1 1 1 0 -1 -1 -1 -2 -3 -2 -2 -2 -2 -1 -2 -2 -2 -2
5 5 6 6 5 4 3 3 2 2 2 2 1 1 1 -0 -1 -0 0 1 1 1 0 -0 1 1 0 0 -0 -1 -1 -2 -2 -2 -2 -2 -2 -2 -2 -2 -2 -2 -2
6 6 6 5 4 4 3 2 2 1 1 1 1 1 0 1 -1 -1 -0 -0 0 1 0 0 1 0 -0 -0 -1 -2 -2 -2 -2 -2 -2 -2 -2 -2 -2 -2 -2 -2 -2
6 6 6 5 4 3 3 3 3 2 1 1 1 1 1 0 1 -0 -1 -1 0 0 1 0 -0 -0 -1 -1 -1 -2 -2 -2 -2 -2 -2 -2 -2 -2 -2 -1 -1 -2 -2
6 6 6 5 4 3 2 3 3 2 2 1 0 1 1 -0 -0 -0 -1 -1 -0 0 0 -0 -0 -0 -0 -1 -1 -2 -2 -2 -2 -2 -1 -2 -2 -2 -1 -2 -2 -2 -2
5 6 6 5 4 3 3 2 2 2 1 1 0 0 1 0 -0 -1 -1 -1 -2 -2 -1 -1 -1 -1 -1 -1 -2 -2 -2 -3 -2 -2 -2 -2 -2 -1 -2 -2 -2 -2 -2
5 5 6 5 5 4 3 2 2 2 2 1 1 0 0 0 -0 -0 -1 -1 -2 -2 -1 -1 -1 -1 -2 -2 -2 -2 -2 -2 -2 -2 -2 -2 -2 -2 -2 -2 -2 -2 -2
4 5 5 5 5 4 3 3 2 2 2 2 1 1 0 -0 -0 -0 -2 -1 -2 -2 -1 -0 -1 -2 -2 -2 -2 -1 -1 -2 -2 -2 -2 -2 -2 -2 -3 -2 -3 -2 -3
4 5 5 4 4 4 3 2 2 2 2 1 1 1 1 -0 -0 0 -0 -1 -1 -2 -1 -2 -1 -1 -1 -1 -1 -1 -2 -2 -2 -2 -2 -2 -2 -2 -2 -3 -3 -3 -4
4 5 4 4 4 3 3 2 2 2 1 0 1 1 0 -0 -0 -0 0 -1 -2 -1 -1 -1 -1 -1 -1 -1 -1 -1 -2 -2 -2 -2 -2 -2 -2 -3 -4 -4 -4 -4 -4
4 4 4 4 4 3 3 2 2 2 1 1 0 1 0 -0 -0 0 -0 -1 -1 -0 -1 -1 -1 -1 -1 -1 -1 -1 -1 -2 -2 -2 -2 -3 -3 -4 -4 -5 -5 -5 -6
3 4 3 3 3 3 3 2 2 2 1 0 -0 -0 -0 -0 0 0 0 -0 -1 -1 -1 -1 -1 -1 -1 -1 -2 -2 -2 -2 -2 -3 -3 -4 -4 -6 -6 -6 -6 -7 -7
2 3 3 3 3 3 3 3 2 2 2 1 0 0 -0 -1 -1 -1 -1 -1 -1 -1 -1 -1 -1 -1 -1 -1 -2 -2 -2 -2 -3 -4 -4 -5 -6 -6 -6 -7 -7 -8 -9

GFSMA_700_temp_129.txt.gz
Temp
7 6 6 6 5 5 4 3 3 3 3 2 2 1 1 2 3 3 4 4 4 4 4 4 5 5 5 5 5 5 5 4 4 4 4 4 4 4 3 3 3 3 3
7 7 6 6 5 5 4 3 2 2 2 2 2 2 1 2 3 3 3 3 4 4 4 4 5 5 5 4 4 4 4 5 4 3 4 4 3 3 3 3 3 3 3
7 7 6 6 5 5 5 4 3 2 2 1 2 1 1 2 3 4 3 3 4 4 4 4 4 4 4 4 4 4 4 4 3 3 3 3 2 3 2 2 2 2 3
7 7 7 6 5 5 5 4 3 3 2 2 1 0 1 2 3 4 3 3 3 4 4 4 4 4 4 4 4 4 4 3 3 3 3 2 2 2 2 2 2 2 2
7 7 7 6 6 5 5 5 4 3 2 1 1 1 0 1 2 3 3 3 3 4 4 4 4 4 4 3 3 3 3 3 3 2 2 2 2 2 2 2 2 2 2
7 7 7 7 6 5 5 5 4 2 3 2 1 2 1 1 1 3 3 2 3 3 3 4 3 3 3 3 3 3 3 2 2 2 2 2 2 2 2 1 1 1 1
7 7 7 7 6 5 5 4 4 3 3 2 2 1 2 1 1 2 2 2 3 3 3 3 3 3 3 3 3 3 2 2 2 2 2 2 2 1 1 1 1 0 0
6 7 7 7 7 5 5 5 4 4 3 2 3 2 1 1 0 0 2 2 2 3 3 3 3 3 3 2 3 2 2 2 2 2 1 1 1 1 0 0 -0 -0 -0
7 7 7 7 6 5 5 5 5 4 3 2 2 2 2 2 0 0 1 2 3 3 3 3 3 3 2 2 2 2 2 1 1 1 1 1 0 0 -0 -0 -0 -0 -1
7 7 7 6 6 5 5 5 4 4 3 2 2 2 1 1 2 1 1 2 3 3 2 2 2 2 2 2 2 1 1 1 1 1 0 -0 -0 -0 -1 -1 -1 -1 -1
7 8 7 6 6 5 5 5 4 4 3 3 2 2 1 1 0 1 1 3 2 3 2 2 2 2 2 2 2 2 2 1 0 0 -0 -1 -1 -1 -1 -1 -2 -3 -3
7 7 7 6 6 5 5 5 5 4 3 2 2 2 2 2 2 1 1 1 2 3 3 2 1 1 2 2 2 2 1 1 0 -0 -1 -1 -2 -2 -2 -2 -2 -2 -3
8 8 7 6 6 6 6 5 4 4 3 2 2 2 2 2 2 1 1 -0 1 1 1 1 1 1 2 2 2 1 1 -0 -0 -1 -2 -2 -2 -3 -3 -2 -2 -2 -2
8 7 6 6 6 5 5 5 5 4 3 2 2 2 2 2 1 1 0 1 1 1 1 1 1 1 2 1 1 1 0 -0 -1 -1 -2 -2 -2 -2 -3 -2 -2 -2 -2
7 6 6 6 6 6 6 5 4 3 3 3 3 2 0 1 1 1 0 0 1 2 0 1 1 2 2 1 1 0 0 -1 -1 -1 -2 -3 -2 -2 -2 -2 -2 -2 -2
6 6 6 6 5 5 6 5 4 3 3 3 1 1 2 1 1 1 1 -0 0 1 1 1 2 2 2 1 0 0 -0 -1 -1 -1 -2 -2 -2 -2 -2 -2 -2 -2 -2
5 5 5 5 5 5 5 5 3 3 3 3 1 1 1 2 2 0 0 0 0 -0 -0 0 1 1 0 -0 -1 -1 -1 -1 -2 -2 -2 -2 -2 -2 -2 -2 -2 -2 -2
4 5 5 5 5 5 5 5 4 3 3 2 2 1 1 1 1 -0 0 0 -0 -0 -0 -0 0 -0 -1 -1 -1 -1 -1 -2 -2 -2 -2 -2 -2 -2 -2 -2 -2 -2 -2
3 4 5 5 5 5 5 4 3 3 2 2 2 1 1 1 1 -0 0 0 -0 -1 -1 -1 -1 -1 -2 -1 -1 -1 -1 -2 -2 -2 -2 -2 -2 -2 -2 -2 -2 -2 -2
3 3 5 5 5 5 5 4 3 3 2 2 2 2 1 1 0 -0 -0 0 0 -1 -1 -2 -2 -1 -2 -2 -2 -2 -2 -3 -2 -2 -2 -2 -2 -2 -2 -2 -2 -2 -3
3 3 3 4 5 5 5 4 3 2 2 2 2 1 1 1 0 0 -0 0 -0 -0 -1 -2 -2 -1 -2 -3 -3 -2 -2 -2 -2 -2 -2 -2 -2 -2 -2 -2 -3 -2 -2
3 2 2 4 4 5 4 3 2 3 1 2 1 1 1 1 0 1 -0 -1 -0 -1 -1 -1 -2 -1 -2 -2 -3 -3 -2 -2 -2 -2 -2 -2 -2 -2 -2 -2 -3 -3 -4
2 2 2 3 4 4 3 3 2 2 2 1 1 1 0 1 1 0 1 -0 -1 -1 -1 -1 -1 -1 -2 -2 -2 -2 -2 -2 -2 -2 -2 -2 -2 -2 -3 -3 -4 -4 -4
2 2 2 2 3 3 3 3 3 2 2 1 0 0 1 0 1 1 -0 -1 -1 -1 -1 -1 -1 -1 -2 -2 -2 -2 -2 -2 -2 -2 -2 -2 -2 -3 -4 -4 -4 -4 -5
2 1 2 2 3 3 3 3 2 2 2 2 1 1 0 0 0 0 -0 -1 -0 -1 -1 -1 -1 -2 -2 -2 -2 -2 -2 -2 -2 -2 -2 -2 -3 -4 -4 -4 -5 -6 -6
1 0 2 2 3 3 3 3 3 2 2 2 1 -0 0 0 0 0 -0 -0 -1 -0 -1 -1 -1 -1 -2 -2 -2 -2 -2 -2 -2 -2 -3 -4 -4 -5 -5 -5 -6 -6 -7

GFSMA_700_temp_132.txt.gz
Temp
7 7 6 6 5 5 5 4 3 3 2 2 2 1 1 2 3 3 3 3 3 4 4 4 4 4 4 5 5 5 4 4 4 4 4 3 3 3 3 3 3 3 3
7 7 7 6 6 5 5 4 3 3 2 2 2 1 1 2 2 2 3 3 3 4 4 3 4 3 4 4 5 5 4 4 4 4 4 3 3 3 2 2 2 2 2
7 7 7 6 6 5 5 5 4 3 2 2 1 1 1 1 2 2 2 3 3 3 3 3 4 3 4 5 5 5 4 4 3 4 3 3 3 3 2 2 2 2 2
7 7 7 6 6 5 5 5 4 4 2 2 2 2 1 2 1 2 2 3 3 3 3 3 3 3 4 4 4 4 4 3 4 3 3 2 2 2 2 2 2 2 2
7 7 7 6 6 6 5 4 4 4 2 2 2 1 2 1 1 2 3 3 3 3 3 3 3 3 3 3 3 3 3 3 3 3 2 2 2 1 1 1 1 1 1
7 7 7 7 6 6 5 5 4 4 3 2 2 1 2 1 1 2 3 3 3 3 3 3 3 3 3 3 3 3 3 3 3 2 2 2 1 1 1 1 1 1 1
6 6 6 6 6 6 5 4 4 4 4 2 2 2 2 1 2 2 2 2 3 3 2 3 3 3 3 3 3 3 2 2 2 2 2 2 1 1 1 1 1 0 0
6 6 5 5 5 5 5 5 4 4 4 2 2 2 2 1 1 1 1 2 2 2 2 2 3 3 3 2 2 2 2 2 2 2 2 1 1 1 1 0 0 -0 -0
6 6 5 5 5 5 5 5 4 4 4 3 2 2 2 2 1 1 1 1 2 2 2 2 2 3 3 2 2 2 2 2 1 1 1 1 1 0 -0 -0 -1 -1 -1
5 6 5 6 5 5 5 5 4 4 4 3 2 2 2 2 3 2 1 1 1 2 2 2 2 2 2 2 2 2 2 1 1 1 0 0 -0 -0 -1 -1 -1 -2 -2
5 6 5 5 5 5 5 5 5 4 3 4 2 2 2 2 2 1 1 1 0 2 1 2 2 2 2 1 2 2 1 1 1 0 0 -0 -0 -1 -1 -1 -1 -2 -1
4 6 6 6 5 6 6 5 4 4 4 3 4 3 1 2 2 3 2 1 1 2 2 1 1 1 1 1 2 1 1 0 0 0 -0 -0 -1 -1 -1 -1 -1 -2 -2
4 6 5 6 6 6 6 5 4 4 4 4 3 2 2 2 1 2 2 1 1 0 1 1 1 2 1 1 1 1 1 0 0 -0 -0 -1 -1 -1 -2 -2 -2 -2 -2
5 6 6 6 6 6 5 5 4 5 5 4 3 2 1 2 2 2 2 2 0 0 1 1 2 2 2 1 1 1 1 0 0 0 -1 -1 -2 -2 -2 -2 -2 -2 -2
5 6 6 7 7 6 5 5 5 5 5 4 3 3 2 2 2 1 2 2 1 -0 1 1 1 2 2 2 1 1 0 0 -0 -0 -1 -2 -2 -2 -2 -2 -2 -2 -2
2 4 5 6 6 6 5 5 5 5 5 4 3 2 2 1 2 1 2 1 1 -0 -1 0 2 2 2 2 2 1 1 0 -0 -1 -2 -1 -2 -2 -2 -3 -2 -2 -2
3 4 4 5 5 5 5 5 5 5 5 3 3 2 2 1 2 2 1 2 2 -0 -1 -0 0 1 2 2 1 1 1 -0 -1 -2 -2 -2 -2 -2 -2 -2 -2 -2 -2
3 3 3 3 5 5 5 5 5 5 4 3 3 2 2 2 2 1 1 1 1 0 -0 -0 0 1 1 1 0 -0 -1 -2 -1 -2 -2 -1 -2 -2 -2 -2 -2 -2 -2
2 2 3 3 4 5 5 5 5 5 4 3 3 2 2 1 1 1 0 1 1 0 -1 -0 0 1 0 0 -1 -1 -1 -1 -1 -2 -2 -2 -2 -2 -2 -2 -2 -2 -2
2 3 2 2 2 4 4 4 4 4 4 3 2 2 2 2 1 0 1 1 1 -0 -0 -0 -0 -1 -1 -1 -2 -1 -1 -2 -2 -2 -1 -3 -2 -2 -2 -2 -2 -2 -2
4 2 2 2 2 3 4 4 4 4 3 3 2 1 2 2 2 1 1 0 0 0 0 1 -1 -1 -0 -1 -1 -2 -1 -2 -3 -3 -3 -2 -2 -2 -2 -2 -2 -2 -3
3 1 3 3 1 2 3 4 4 4 3 3 1 1 1 1 1 1 1 0 1 1 1 1 0 -1 -1 -1 -1 -1 -2 -2 -2 -3 -2 -2 -2 -2 -2 -2 -2 -2 -3
0 2 1 2 2 2 2 3 4 4 3 3 2 1 1 0 1 1 0 1 0 -0 0 0 -0 -1 -1 -1 -1 -1 -2 -2 -2 -3 -3 -2 -2 -2 -2 -3 -3 -3 -3
0 -0 2 1 1 1 2 2 3 4 3 2 1 0 1 1 1 1 0 1 1 -0 -0 -0 -1 -1 -1 -2 -1 -2 -2 -2 -2 -3 -2 -2 -3 -3 -2 -2 -3 -3 -4
-0 1 1 0 2 2 1 2 3 3 3 3 2 1 0 1 0 0 0 -0 0 -0 -0 -0 -1 -1 -1 -1 -2 -2 -2 -3 -3 -2 -2 -2 -2 -2 -3 -3 -3 -4 -5
1 -0 1 1 1 1 1 2 3 3 3 3 2 1 1 0 1 -0 0 -0 0 0 0 -1 -1 -1 -1 -1 -2 -2 -2 -2 -2 -2 -2 -2 -3 -3 -3 -4 -5 -5 -5

GFSMA_700_temp_138.txt.gz
Temp
7 7 6 6 6 5 5 5 4 4 3 3 2 2 2 1 1 1 1 1 2 2 2 3 3 3 3 4 4 4 4 4 4 4 4 4 4 3 3 3 2 2 2
7 7 6 6 6 5 5 5 4 4 4 3 3 2 2 1 1 1 1 2 2 2 2 2 3 3 3 3 4 3 4 4 4 4 4 3 3 3 3 2 2 2 2
6 6 6 6 6 5 5 5 5 4 4 4 3 2 2 2 1 1 1 2 2 2 2 2 2 3 3 3 3 3 3 4 4 4 3 3 3 3 2 2 2 2 2
6 6 6 6 6 5 5 5 5 4 4 4 3 2 2 2 2 1 1 2 1 2 2 2 3 3 3 3 3 3 3 3 4 4 4 3 3 2 2 2 2 1 1
6 6 6 6 6 5 5 5 5 5 4 4 3 3 2 2 2 1 1 1 2 2 2 2 3 2 3 3 3 3 3 3 4 4 3 3 2 2 2 1 1 1 1
6 6 6 6 5 5 5 5 5 5 4 3 3 3 3 2 1 1 1 1 1 2 2 2 2 2 3 3 3 3 3 3 3 3 3 2 2 2 1 1 1 1 1
6 6 6 6 6 5 5 5 5 4 4 4 3 4 3 2 2 2 2 1 1 1 2 2 2 2 3 3 3 2 3 3 3 3 3 2 2 1 1 1 1 1 0
5 5 5 5 5 5 5 5 5 4 3 3 3 3 3 3 2 1 2 1 1 1 2 2 2 2 2 3 2 2 3 3 3 3 2 2 1 1 1 1 0 -0 -0
4 5 5 5 5 5 5 5 4 4 3 3 3 4 3 4 3 2 2 1 1 2 2 2 2 2 2 2 2 2 2 3 2 2 2 2 1 1 1 0 0 -0 -1
4 5 5 5 5 5 4 4 4 4 3 3 3 4 4 4 2 2 2 1 1 2 1 2 2 2 2 2 2 2 2 2 2 2 2 1 1 1 1 0 -0 -1 -1
4 4 4 4 4 4 4 4 4 4 4 4 4 3 3 4 2 2 3 2 1 1 1 1 -0 1 2 2 2 2 2 2 2 2 2 1 1 0 0 -0 -1 -1 -1
3 3 3 4 4 4 4 4 4 4 4 4 4 4 4 3 3 3 2 2 1 2 1 1 1 1 1 2 1 1 1 1 2 1 1 1 0 0 0 -0 -1 -1 -1
4 3 3 3 4 4 4 4 4 4 4 4 4 4 4 3 2 2 2 2 2 1 1 1 1 -0 1 1 1 1 1 1 1 1 1 0 0 0 -0 -1 -1 -1 -2
3 3 3 3 3 4 4 3 3 4 4 4 4 4 3 4 2 2 2 1 1 1 1 1 1 1 1 1 1 1 1 1 1 1 1 -0 -0 -0 -1 -1 -1 -1 -1
4 3 3 3 3 3 3 3 3 3 3 4 4 4 4 4 3 2 2 2 2 1 2 2 1 1 1 0 1 1 2 1 1 1 0 -0 -1 -1 -1 -1 -1 -1 -1
4 3 3 3 3 3 3 3 3 3 3 3 4 4 4 4 4 3 3 2 1 2 1 2 2 0 1 -0 -0 1 1 1 1 1 0 -0 -1 -1 -1 -1 -1 -1 -2
4 4 4 3 3 3 3 3 3 3 2 3 3 5 5 4 4 4 2 2 1 2 1 1 1 0 1 -0 -0 0 1 1 1 0 -0 -1 -1 -1 -1 -1 -1 -2 -2
3 4 4 4 3 3 2 2 2 3 4 4 4 5 4 4 4 3 3 2 1 2 1 1 0 0 0 -0 -1 -1 -0 -0 0 0 -0 -0 -1 -1 -2 -1 -2 -3 -2
3 3 3 4 4 2 2 2 1 2 3 3 3 4 4 4 4 4 4 2 1 2 1 1 1 1 1 1 -0 -1 -1 -1 -1 -1 -1 -1 -1 -1 -0 -0 -1 -2 -2
2 2 3 3 3 3 2 2 2 2 2 2 3 4 4 4 4 4 2 1 1 1 1 1 1 1 0 1 0 -0 -1 -1 -1 -1 -1 -1 -0 -1 -0 -1 -2 -2 -2
2 2 2 3 3 3 3 2 2 2 2 2 3 3 4 4 4 4 2 2 1 1 1 1 1 1 0 1 0 -0 -1 -2 -1 -1 -2 -2 -2 -1 -2 -2 -2 -2 -2
2 2 2 2 2 3 3 2 2 2 2 2 3 3 3 3 4 4 3 2 1 1 2 2 1 1 0 0 0 -0 -0 -1 -1 -1 -1 -2 -2 -2 -1 -2 -2 -2 -2
1 1 1 2 2 2 2 2 2 2 2 2 2 3 3 3 3 3 3 2 1 1 1 1 1 1 1 0 -0 -0 -0 -1 -2 -1 -2 -2 -2 -2 -2 -2 -2 -2 -2
-0 0 0 0 1 1 1 1 1 1 1 1 2 1 2 2 3 3 2 1 1 1 1 2 2 1 1 0 -0 0 -0 -1 -2 -1 -1 -2 -2 -2 -2 -2 -2 -2 -2
-1 -1 -0 -0 0 -0 0 0 0 1 1 1 1 0 1 1 2 3 1 1 -0 1 1 1 1 0 0 -0 -0 0 -1 -1 -1 -1 -2 -1 -2 -2 -2 -2 -2 -3 -3
-1 -1 -1 -0 -0 -0 -0 -0 -1 0 -0 1 1 0 1 1 2 2 -0 -1 -0 -1 1 0 -0 -0 -0 -0 -0 -0 -1 -1 -1 -1 -1 -2 -2 -2 -2 -2 -3 -3 -3

GFSMA_700_temp_141.txt.gz
Temp
7 7 7 6 6 6 5 5 5 5 5 5 4 3 2 2 1 2 1 1 1 2 2 2 2 3 3 4 4 4 4 4 4 4 4 4 3 3 3 3 3 3 2
7 7 7 6 6 6 5 5 5 5 5 4 4 3 3 2 2 2 1 1 1 2 2 2 2 3 3 3 4 4 4 3 4 4 3 3 3 3 3 3 3 2 2
7 7 7 6 6 6 5 5 5 5 4 4 4 4 3 2 2 2 1 1 1 2 2 2 2 2 3 3 3 4 4 3 3 4 3 3 3 3 3 3 2 2 2
7 7 6 6 6 6 5 5 5 5 4 4 4 4 3 3 2 1 1 1 1 1 1 2 2 2 3 3 3 4 4 4 3 3 3 3 3 3 3 2 2 1 1
7 7 6 6 6 6 6 5 5 5 5 4 3 3 3 3 2 2 1 1 1 1 1 1 2 2 3 3 3 3 3 3 3 3 3 3 3 2 2 2 2 1 1
6 6 6 6 6 6 6 6 5 5 4 4 3 3 3 3 3 2 1 1 1 1 2 2 2 2 2 3 3 3 3 3 3 3 3 3 2 2 2 1 1 1 1
6 6 6 6 6 5 6 5 5 4 4 4 3 3 3 3 3 3 2 2 1 1 1 1 2 2 2 2 3 3 3 3 3 3 3 2 2 2 1 1 1 1 0
5 5 5 5 5 5 5 5 5 5 5 4 3 3 3 3 4 3 3 2 1 1 1 1 2 2 2 2 3 3 3 3 3 3 3 2 2 2 1 1 1 0 0
4 3 4 4 4 4 5 5 5 5 5 4 3 3 3 4 4 3 3 2 2 1 1 1 2 2 2 2 3 3 3 3 2 2 2 2 1 1 1 1 1 0 0
4 3 3 2 2 3 4 5 5 5 4 4 3 3 4 4 4 4 3 2 2 1 1 1 1 2 2 2 2 3 2 2 2 2 2 2 1 1 1 1 0 0 0
4 3 2 1 1 1 3 4 4 4 4 4 4 4 4 4 3 5 4 3 2 1 1 1 1 1 2 2 2 2 2 2 2 1 2 2 1 1 1 0 0 0 0
3 3 4 3 3 2 3 3 3 3 3 4 4 3 4 4 4 4 3 2 2 2 1 1 1 1 1 1 1 2 2 2 1 1 1 1 1 0 0 0 0 -0 -0
2 3 4 3 3 3 3 3 3 3 3 3 4 4 4 4 4 4 2 2 2 2 2 1 1 1 1 1 0 1 2 2 1 1 1 1 1 0 0 0 -0 -0 -0
3 3 4 4 3 3 3 3 3 3 3 3 3 4 4 3 3 3 2 2 1 2 2 2 1 1 0 1 0 1 1 1 1 1 1 1 0 0 0 -0 -0 -0 -0
3 3 4 4 3 3 3 3 3 3 3 3 3 4 4 3 3 3 3 2 2 2 3 3 2 1 1 1 1 0 1 0 1 1 1 0 0 -0 -0 -0 -0 -0 -1
3 4 4 4 3 3 3 3 3 3 3 3 3 3 4 3 4 3 3 2 2 2 2 2 2 2 1 1 1 0 0 -0 -0 0 0 1 -0 -0 -0 -1 -1 -1 -1
3 3 4 4 4 3 3 3 3 3 2 3 3 3 3 3 3 3 3 3 3 2 3 2 2 1 2 1 1 0 0 0 -1 -0 0 1 -0 -0 -1 -1 -1 -1 -1
3 3 3 4 4 4 3 3 3 2 2 3 3 2 3 3 3 3 3 4 4 2 2 3 2 2 1 1 0 -0 0 0 -1 -0 -1 -0 -0 -1 -1 -1 -1 -1 -1
2 2 2 3 3 4 4 3 3 3 2 2 1 2 2 2 2 3 3 4 4 3 3 2 1 1 1 1 1 1 0 -0 -0 -1 -1 -1 -1 -1 -1 -1 -1 -2 -1
2 2 2 2 2 3 3 3 2 2 2 2 1 2 2 3 3 2 4 4 4 4 2 2 1 1 1 1 1 1 0 0 -0 -1 -1 -1 -1 -1 -1 -1 -1 -1 -1
2 2 2 2 1 2 2 2 2 1 2 2 1 1 2 2 2 2 4 4 4 4 3 2 2 2 1 1 1 1 1 -0 0 -1 -1 -1 -1 -2 -2 -1 -1 -1 -1
2 2 2 2 1 1 1 2 1 2 2 1 2 1 2 1 2 3 3 3 3 3 3 2 3 1 1 1 1 0 -0 0 -0 -1 -1 -1 -2 -2 -2 -3 -2 -2 -2
1 1 1 2 1 1 1 1 2 2 2 1 1 1 1 2 2 3 3 3 3 3 3 3 2 1 1 1 1 0 -0 -0 -0 -0 -0 -1 -1 -2 -2 -2 -2 -2 -2
0 0 0 1 2 1 1 0 0 1 1 1 1 1 1 1 1 1 3 2 3 3 3 2 2 1 0 1 1 1 0 -0 -0 -0 -1 -1 -2 -1 -2 -2 -2 -2 -2
-0 -0 -0 -1 0 1 0 -0 -0 0 1 1 1 1 1 1 1 1 2 2 2 3 3 2 1 1 1 1 1 1 1 0 -1 -1 -1 -1 -1 -2 -2 -2 -2 -2 -2
-1 -0 -0 -0 -0 0 0 0 -1 -0 0 0 1 1 1 1 1 1 1 2 2 3 2 2 1 1 0 0 0 -0 -0 -0 -0 -1 -1 -1 -1 -2 -2 -2 -2 -2 -2